Tracking 30009 objects as of 7-Dec-2024
HD Live streaming from Space Station
objects crossing your sky now

DIAMANT B-P4 DEB

Track DIAMANT B-P4 DEB now!
10-day predictions


NORAD ID: 7659
Int'l Code: 1975-010E
Perigee: 788.0 km
Apogee: 1,059.0 km
Inclination: 49.8 °
Period: 103.3 minutes
Semi major axis: 7294 km
RCS: 0.1434 m2 (medium)
Launch date: February 6, 1975
Source: France (FR)
Launch site: FRENCH GUIANA (FRGUI)

Note: This is SATELLITE DEBRIS
Your satellite tracking list
Your tracking list is empty




NASA's NSSDC Master Catalog

Two Line Element Set (TLE):
1 07659U 75010E   24341.80426416  .00000489  00000-0  41700-3 0  9991
2 07659  49.8136 170.5287 0185764 255.6046 102.4170 13.93502201527600
Source of the keplerian elements: AFSPC